Year,Month,Day,Hour,Minute,Value (Times are PST for temperature in C)
2021,04,26,00,00,6.70
2021,04,26,00,01,6.70
2021,04,26,00,02,6.70
2021,04,26,00,03,6.70
2021,04,26,00,04,6.70
2021,04,26,00,05,6.70
2021,04,26,00,06,6.60
2021,04,26,00,07,6.60
2021,04,26,00,08,6.60
2021,04,26,00,09,6.60
2021,04,26,00,10,6.60
2021,04,26,00,11,6.60
2021,04,26,00,12,6.50
2021,04,26,00,13,6.50
2021,04,26,00,14,6.50
2021,04,26,00,15,6.40
2021,04,26,00,16,6.40
2021,04,26,00,17,6.40
2021,04,26,00,18,6.40
2021,04,26,00,19,6.40
2021,04,26,00,20,6.40
2021,04,26,00,21,6.30
2021,04,26,00,22,6.30
2021,04,26,00,23,6.30
2021,04,26,00,24,6.30
2021,04,26,00,25,6.30
2021,04,26,00,26,6.30
2021,04,26,00,27,6.30
2021,04,26,00,28,6.30
2021,04,26,00,29,6.30
2021,04,26,00,30,6.30
2021,04,26,00,31,6.30
2021,04,26,00,32,6.30
2021,04,26,00,33,6.30
2021,04,26,00,34,6.30
2021,04,26,00,35,6.20
2021,04,26,00,36,6.20
2021,04,26,00,37,6.20
2021,04,26,00,38,6.20
2021,04,26,00,39,6.20
2021,04,26,00,40,6.20
2021,04,26,00,41,6.10
2021,04,26,00,42,6.10
2021,04,26,00,43,6.10
2021,04,26,00,44,6.10
2021,04,26,00,45,6.10
2021,04,26,00,46,6.10
2021,04,26,00,47,6.00
2021,04,26,00,48,6.00
2021,04,26,00,49,6.00
2021,04,26,00,50,6.00
2021,04,26,00,51,5.90
2021,04,26,00,52,5.90
2021,04,26,00,53,5.90
2021,04,26,00,54,5.90
2021,04,26,00,55,5.90
2021,04,26,00,56,5.80
2021,04,26,00,57,5.80
2021,04,26,00,58,5.80
2021,04,26,00,59,5.80
2021,04,26,01,00,5.80
2021,04,26,01,01,5.80
2021,04,26,01,02,5.80
2021,04,26,01,03,5.80
2021,04,26,01,04,5.80
2021,04,26,01,05,5.80
2021,04,26,01,06,5.80
2021,04,26,01,07,5.80
2021,04,26,01,08,5.80
2021,04,26,01,09,5.80
2021,04,26,01,10,5.80
2021,04,26,01,11,5.80
2021,04,26,01,12,5.80
2021,04,26,01,13,5.70
2021,04,26,01,14,5.70
2021,04,26,01,15,5.70
2021,04,26,01,16,5.70
2021,04,26,01,17,5.70
2021,04,26,01,18,5.70
2021,04,26,01,19,5.70
2021,04,26,01,20,5.70
2021,04,26,01,21,5.70
2021,04,26,01,22,5.70
2021,04,26,01,23,5.70
2021,04,26,01,24,5.70
2021,04,26,01,25,5.70
2021,04,26,01,26,5.60
2021,04,26,01,27,5.60
2021,04,26,01,28,5.60
2021,04,26,01,29,5.70
2021,04,26,01,30,5.70
2021,04,26,01,31,5.70
2021,04,26,01,32,5.70
2021,04,26,01,33,5.60
2021,04,26,01,34,5.60
2021,04,26,01,35,5.60
2021,04,26,01,36,5.60
2021,04,26,01,37,5.60
2021,04,26,01,38,5.60
2021,04,26,01,39,5.60
2021,04,26,01,40,5.60
2021,04,26,01,41,5.60
2021,04,26,01,42,5.60
2021,04,26,01,43,5.60
2021,04,26,01,44,5.60
2021,04,26,01,45,5.60
2021,04,26,01,46,5.60
2021,04,26,01,47,5.60
2021,04,26,01,48,5.60
2021,04,26,01,49,5.60
2021,04,26,01,50,5.60
2021,04,26,01,51,5.60
2021,04,26,01,52,5.60
2021,04,26,01,53,5.60
2021,04,26,01,54,5.60
2021,04,26,01,55,5.60
2021,04,26,01,56,5.60
2021,04,26,01,57,5.60
2021,04,26,01,58,5.60
2021,04,26,01,59,5.60
2021,04,26,02,00,5.60
2021,04,26,02,01,5.60
2021,04,26,02,02,5.60
2021,04,26,02,03,5.60
2021,04,26,02,04,5.60
2021,04,26,02,05,5.60
2021,04,26,02,06,5.60
2021,04,26,02,07,5.60
2021,04,26,02,08,5.60
2021,04,26,02,09,5.60
2021,04,26,02,10,5.60
2021,04,26,02,11,5.60
2021,04,26,02,12,5.60
2021,04,26,02,13,5.60
2021,04,26,02,14,5.60
2021,04,26,02,15,5.60
2021,04,26,02,16,5.60
2021,04,26,02,17,5.60
2021,04,26,02,18,5.60
2021,04,26,02,19,5.60
2021,04,26,02,20,5.60
2021,04,26,02,21,5.60
2021,04,26,02,22,5.60
2021,04,26,02,23,5.70
2021,04,26,02,24,5.60
2021,04,26,02,25,5.70
2021,04,26,02,26,5.70
2021,04,26,02,27,5.70
2021,04,26,02,28,5.70
2021,04,26,02,29,5.70
2021,04,26,02,30,5.70
2021,04,26,02,31,5.70
2021,04,26,02,32,5.70
2021,04,26,02,33,5.70
2021,04,26,02,34,5.70
2021,04,26,02,35,5.70
2021,04,26,02,36,5.70
2021,04,26,02,37,5.70
2021,04,26,02,38,5.70
2021,04,26,02,39,5.70
2021,04,26,02,40,5.70
2021,04,26,02,41,5.70
2021,04,26,02,42,5.80
2021,04,26,02,43,5.80
2021,04,26,02,44,5.80
2021,04,26,02,45,5.80
2021,04,26,02,46,5.80
2021,04,26,02,47,5.80
2021,04,26,02,48,5.90
2021,04,26,02,49,5.90
2021,04,26,02,50,5.90
2021,04,26,02,51,5.90
2021,04,26,02,52,5.90
2021,04,26,02,53,5.90
2021,04,26,02,54,5.90
2021,04,26,02,55,5.90
2021,04,26,02,56,5.90
2021,04,26,02,57,5.90
2021,04,26,02,58,5.90
2021,04,26,02,59,5.90
2021,04,26,03,00,5.90
2021,04,26,03,01,5.90
2021,04,26,03,02,5.90
2021,04,26,03,03,6.00
2021,04,26,03,04,6.00
2021,04,26,03,05,6.00
2021,04,26,03,06,6.00
2021,04,26,03,07,6.00
2021,04,26,03,08,6.00
2021,04,26,03,09,6.00
2021,04,26,03,10,6.00
2021,04,26,03,11,6.00
2021,04,26,03,12,6.10
2021,04,26,03,13,6.10
2021,04,26,03,14,6.10
2021,04,26,03,15,6.10
2021,04,26,03,16,6.20
2021,04,26,03,17,6.20
2021,04,26,03,18,6.20
2021,04,26,03,19,6.20
2021,04,26,03,20,6.20
2021,04,26,03,21,6.20
2021,04,26,03,22,6.20
2021,04,26,03,23,6.20
2021,04,26,03,24,6.30
2021,04,26,03,25,6.30
2021,04,26,03,26,6.30
2021,04,26,03,27,6.30
2021,04,26,03,28,6.30
2021,04,26,03,29,6.30
2021,04,26,03,30,6.40
2021,04,26,03,31,6.40
2021,04,26,03,32,6.40
2021,04,26,03,33,6.40
2021,04,26,03,34,6.40
2021,04,26,03,35,6.40
2021,04,26,03,36,6.40
2021,04,26,03,37,6.40
2021,04,26,03,38,6.40
2021,04,26,03,39,6.40
2021,04,26,03,40,6.40
2021,04,26,03,41,6.40
2021,04,26,03,42,6.50
2021,04,26,03,43,6.50
2021,04,26,03,44,6.50
2021,04,26,03,45,6.50
2021,04,26,03,46,6.60
2021,04,26,03,47,6.60
2021,04,26,03,48,6.60
2021,04,26,03,49,6.60
2021,04,26,03,50,6.60
2021,04,26,03,51,6.60
2021,04,26,03,52,6.60
2021,04,26,03,53,6.60
2021,04,26,03,54,6.60
2021,04,26,03,55,6.60
2021,04,26,03,56,6.60
2021,04,26,03,57,6.60
2021,04,26,03,58,6.60
2021,04,26,03,59,6.60
2021,04,26,04,00,6.60
2021,04,26,04,01,6.60
2021,04,26,04,02,6.60
2021,04,26,04,03,6.60
2021,04,26,04,04,6.60
2021,04,26,04,05,6.60
2021,04,26,04,06,6.60
2021,04,26,04,07,6.60
2021,04,26,04,08,6.60
2021,04,26,04,09,6.60
2021,04,26,04,10,6.70
2021,04,26,04,11,6.70
2021,04,26,04,12,6.70
2021,04,26,04,13,6.70
2021,04,26,04,14,6.70
2021,04,26,04,15,6.70
2021,04,26,04,16,6.70
2021,04,26,04,17,6.70
2021,04,26,04,18,6.70
2021,04,26,04,19,6.70
2021,04,26,04,20,6.70
2021,04,26,04,21,6.70
2021,04,26,04,22,6.70
2021,04,26,04,23,6.70
2021,04,26,04,24,6.70
2021,04,26,04,25,6.70
2021,04,26,04,26,6.70
2021,04,26,04,27,6.70
2021,04,26,04,28,6.80
2021,04,26,04,29,6.80
2021,04,26,04,30,6.80
2021,04,26,04,31,6.70
2021,04,26,04,32,6.80
2021,04,26,04,33,6.70
2021,04,26,04,34,6.70
2021,04,26,04,35,6.70
2021,04,26,04,36,6.70
2021,04,26,04,37,6.70
2021,04,26,04,38,6.70
2021,04,26,04,39,6.70
2021,04,26,04,40,6.70
2021,04,26,04,41,6.70
2021,04,26,04,42,6.70
2021,04,26,04,43,6.70
2021,04,26,04,44,6.70
2021,04,26,04,45,6.70
2021,04,26,04,46,6.70
2021,04,26,04,47,6.70
2021,04,26,04,48,6.80
2021,04,26,04,49,6.80
2021,04,26,04,50,6.80
2021,04,26,04,51,6.80
2021,04,26,04,52,6.80
2021,04,26,04,53,6.80
2021,04,26,04,54,6.80
2021,04,26,04,55,6.90
2021,04,26,04,56,6.80
2021,04,26,04,57,6.80
2021,04,26,04,58,6.80
2021,04,26,04,59,6.90
2021,04,26,05,00,6.90
2021,04,26,05,01,6.90
2021,04,26,05,02,6.90
2021,04,26,05,03,6.90
2021,04,26,05,04,6.90
2021,04,26,05,05,6.90
2021,04,26,05,06,6.90
2021,04,26,05,07,6.90
2021,04,26,05,08,6.90
2021,04,26,05,09,6.90
2021,04,26,05,10,6.90
2021,04,26,05,11,6.90
2021,04,26,05,12,6.90
2021,04,26,05,13,6.90
2021,04,26,05,14,6.90
2021,04,26,05,15,6.90
2021,04,26,05,16,6.90
2021,04,26,05,17,6.90
2021,04,26,05,18,6.90
2021,04,26,05,19,6.90
2021,04,26,05,20,6.90
2021,04,26,05,21,6.90
2021,04,26,05,22,6.90
2021,04,26,05,23,6.90
2021,04,26,05,24,6.90
2021,04,26,05,25,6.90
2021,04,26,05,26,6.90
2021,04,26,05,27,6.90
2021,04,26,05,28,6.90
2021,04,26,05,29,6.90
2021,04,26,05,30,6.90
2021,04,26,05,31,6.90
2021,04,26,05,32,6.90
2021,04,26,05,33,6.90
2021,04,26,05,34,6.90
2021,04,26,05,35,7.00
2021,04,26,05,36,7.00
2021,04,26,05,37,7.00
2021,04,26,05,38,7.00
2021,04,26,05,39,6.90
2021,04,26,05,40,6.90
2021,04,26,05,41,6.90
2021,04,26,05,42,6.90
2021,04,26,05,43,6.90
2021,04,26,05,44,6.90
2021,04,26,05,45,6.90
2021,04,26,05,46,6.90
2021,04,26,05,47,7.00
2021,04,26,05,48,7.00
2021,04,26,05,49,7.00
2021,04,26,05,50,7.00
2021,04,26,05,51,7.00
2021,04,26,05,52,7.00
2021,04,26,05,53,7.00
2021,04,26,05,54,7.00
2021,04,26,05,55,7.00
2021,04,26,05,56,7.10
2021,04,26,05,57,7.10
2021,04,26,05,58,7.10
2021,04,26,05,59,7.10
2021,04,26,06,00,7.10
2021,04,26,06,01,7.10
2021,04,26,06,02,7.10
2021,04,26,06,03,7.10
2021,04,26,06,04,7.10
2021,04,26,06,05,7.20
2021,04,26,06,06,7.20
2021,04,26,06,07,7.20
2021,04,26,06,08,7.20
2021,04,26,06,09,7.20
2021,04,26,06,10,7.10
2021,04,26,06,11,7.10
2021,04,26,06,12,7.10
2021,04,26,06,13,7.10
2021,04,26,06,14,7.10
2021,04,26,06,15,7.10
2021,04,26,06,16,7.10
2021,04,26,06,17,7.10
2021,04,26,06,18,7.10
2021,04,26,06,19,7.10
2021,04,26,06,20,7.20
2021,04,26,06,21,7.20
2021,04,26,06,22,7.20
2021,04,26,06,23,7.20
2021,04,26,06,24,7.20
2021,04,26,06,25,7.20
2021,04,26,06,26,7.20
2021,04,26,06,27,7.20
2021,04,26,06,28,7.30
2021,04,26,06,29,7.30
2021,04,26,06,30,7.30
2021,04,26,06,31,7.30
2021,04,26,06,32,7.20
2021,04,26,06,33,7.20
2021,04,26,06,34,7.20
2021,04,26,06,35,7.20
2021,04,26,06,36,7.20
2021,04,26,06,37,7.20
2021,04,26,06,38,7.20
2021,04,26,06,39,7.20
2021,04,26,06,40,7.20
2021,04,26,06,41,7.20
2021,04,26,06,42,7.20
2021,04,26,06,43,7.20
2021,04,26,06,44,7.20
2021,04,26,06,45,7.20
2021,04,26,06,46,7.10
2021,04,26,06,47,7.10
2021,04,26,06,48,7.10
2021,04,26,06,49,7.10
2021,04,26,06,50,7.20
2021,04,26,06,51,7.20
2021,04,26,06,52,7.20
2021,04,26,06,53,7.20
2021,04,26,06,54,7.30
2021,04,26,06,55,7.30
2021,04,26,06,56,7.30
2021,04,26,06,57,7.30
2021,04,26,06,58,7.40
2021,04,26,06,59,7.40
2021,04,26,07,00,7.40
2021,04,26,07,01,7.40
2021,04,26,07,02,7.40
2021,04,26,07,03,7.40
2021,04,26,07,04,7.40
2021,04,26,07,05,7.40
2021,04,26,07,06,7.40
2021,04,26,07,07,7.40
2021,04,26,07,08,7.40
2021,04,26,07,09,7.50
2021,04,26,07,10,7.50
2021,04,26,07,11,7.50
2021,04,26,07,12,7.60
2021,04,26,07,13,7.60
2021,04,26,07,14,7.70
2021,04,26,07,15,7.70
2021,04,26,07,16,7.70
2021,04,26,07,17,7.70
2021,04,26,07,18,7.70
2021,04,26,07,19,7.70
2021,04,26,07,20,7.70
2021,04,26,07,21,7.80
2021,04,26,07,22,7.80
2021,04,26,07,23,7.80
2021,04,26,07,24,7.80
2021,04,26,07,25,7.80
2021,04,26,07,26,7.90
2021,04,26,07,27,7.90
2021,04,26,07,28,7.90
2021,04,26,07,29,7.90
2021,04,26,07,30,7.90
2021,04,26,07,31,7.90
2021,04,26,07,32,7.90
2021,04,26,07,33,7.90
2021,04,26,07,34,7.90
2021,04,26,07,35,8.00
2021,04,26,07,36,8.00
2021,04,26,07,37,8.00
2021,04,26,07,38,8.10
2021,04,26,07,39,8.10
2021,04,26,07,40,8.10
2021,04,26,07,41,8.10
2021,04,26,07,42,8.20
2021,04,26,07,43,8.20
2021,04,26,07,44,8.20
2021,04,26,07,45,8.20
2021,04,26,07,46,8.20
2021,04,26,07,47,8.20
2021,04,26,07,48,8.20
2021,04,26,07,49,8.30
2021,04,26,07,50,8.30
2021,04,26,07,51,8.30
2021,04,26,07,52,8.30
2021,04,26,07,53,8.40
2021,04,26,07,54,8.40
2021,04,26,07,55,8.40
2021,04,26,07,56,8.40
2021,04,26,07,57,8.50
2021,04,26,07,58,8.50
2021,04,26,07,59,8.50
2021,04,26,08,00,8.50
2021,04,26,08,01,8.60
2021,04,26,08,02,8.60
2021,04,26,08,03,8.60
2021,04,26,08,04,8.60
2021,04,26,08,05,8.70
2021,04,26,08,06,8.70
2021,04,26,08,07,8.70
2021,04,26,08,08,8.80
2021,04,26,08,09,8.80
2021,04,26,08,10,8.80
2021,04,26,08,11,8.80
2021,04,26,08,12,8.90
2021,04,26,08,13,8.90
2021,04,26,08,14,8.90
2021,04,26,08,15,9.00
2021,04,26,08,16,9.00
2021,04,26,08,17,9.00
2021,04,26,08,18,9.10
2021,04,26,08,19,9.10
2021,04,26,08,20,9.20
2021,04,26,08,21,9.20
2021,04,26,08,22,9.20
2021,04,26,08,23,9.20
2021,04,26,08,24,9.30
2021,04,26,08,25,9.30
2021,04,26,08,26,9.30
2021,04,26,08,27,9.40
2021,04,26,08,28,9.40
2021,04,26,08,29,9.50
2021,04,26,08,30,9.50
2021,04,26,08,31,9.50
2021,04,26,08,32,9.50
2021,04,26,08,33,9.50
2021,04,26,08,34,9.50
2021,04,26,08,35,9.60
2021,04,26,08,36,9.60
2021,04,26,08,37,9.60
2021,04,26,08,38,9.60
2021,04,26,08,39,9.60
2021,04,26,08,40,9.70
2021,04,26,08,41,9.70
2021,04,26,08,42,9.70
2021,04,26,08,43,9.70
2021,04,26,08,44,9.70
2021,04,26,08,45,9.70
2021,04,26,08,46,9.70
2021,04,26,08,47,9.70
2021,04,26,08,48,9.70
2021,04,26,08,49,9.80
2021,04,26,08,50,9.80
2021,04,26,08,51,9.90
2021,04,26,08,52,9.90
2021,04,26,08,53,9.90
2021,04,26,08,54,9.90
2021,04,26,08,55,10.00
2021,04,26,08,56,10.00
2021,04,26,08,57,10.00
2021,04,26,08,58,10.00
2021,04,26,08,59,10.10
2021,04,26,09,00,10.10
2021,04,26,09,01,10.10
2021,04,26,09,02,10.10
2021,04,26,09,03,10.10
2021,04,26,09,04,10.10
2021,04,26,09,05,10.10
2021,04,26,09,06,10.20
2021,04,26,09,07,10.20
2021,04,26,09,08,10.20
2021,04,26,09,09,10.20
2021,04,26,09,10,10.30
2021,04,26,09,11,10.30
2021,04,26,09,12,10.30
2021,04,26,09,13,10.30
2021,04,26,09,14,10.30
2021,04,26,09,15,10.30
2021,04,26,09,16,10.30
2021,04,26,09,17,10.30
2021,04,26,09,18,10.30
2021,04,26,09,19,10.30
2021,04,26,09,20,10.30
2021,04,26,09,21,10.40
2021,04,26,09,22,10.40
2021,04,26,09,23,10.40
2021,04,26,09,24,10.40
2021,04,26,09,25,10.50
2021,04,26,09,26,10.50
2021,04,26,09,27,10.50
2021,04,26,09,28,10.50
2021,04,26,09,29,10.50
2021,04,26,09,30,10.50
2021,04,26,09,31,10.50
2021,04,26,09,32,10.50
2021,04,26,09,33,10.50
2021,04,26,09,34,10.60
2021,04,26,09,35,10.60
2021,04,26,09,36,10.70
2021,04,26,09,37,10.70
2021,04,26,09,38,10.80
2021,04,26,09,39,10.80
2021,04,26,09,40,10.90
2021,04,26,09,41,10.90
2021,04,26,09,42,11.00
2021,04,26,09,43,11.00
2021,04,26,09,44,11.10
2021,04,26,09,45,11.10
2021,04,26,09,46,11.20
2021,04,26,09,47,11.20
2021,04,26,09,48,11.20
2021,04,26,09,49,11.20
2021,04,26,09,50,11.20
2021,04,26,09,51,11.20
2021,04,26,09,52,11.20
2021,04,26,09,53,11.20
2021,04,26,09,54,11.20
2021,04,26,09,55,11.20
2021,04,26,09,56,11.20
2021,04,26,09,57,11.20
2021,04,26,09,58,11.20
2021,04,26,09,59,11.30
2021,04,26,10,00,11.30
2021,04,26,10,01,11.30
2021,04,26,10,02,11.30
2021,04,26,10,03,11.30
2021,04,26,10,04,11.30
2021,04,26,10,05,11.30
2021,04,26,10,06,11.30
2021,04,26,10,07,11.40
2021,04,26,10,08,11.40
2021,04,26,10,09,11.40
2021,04,26,10,10,11.40
2021,04,26,10,11,11.40
2021,04,26,10,12,11.50
2021,04,26,10,13,11.50
2021,04,26,10,14,11.50
2021,04,26,10,15,11.60
2021,04,26,10,16,11.60
2021,04,26,10,17,11.70
2021,04,26,10,18,11.70
2021,04,26,10,19,11.70
2021,04,26,10,20,11.60
2021,04,26,10,21,11.60
2021,04,26,10,22,11.70
2021,04,26,10,23,11.70
2021,04,26,10,24,11.70
2021,04,26,10,25,11.70
2021,04,26,10,26,11.70
2021,04,26,10,27,11.80
2021,04,26,10,28,11.80
2021,04,26,10,29,11.80
2021,04,26,10,30,11.90
2021,04,26,10,31,11.90
2021,04,26,10,32,12.00
2021,04,26,10,33,12.10
2021,04,26,10,34,12.10
2021,04,26,10,35,12.20
2021,04,26,10,36,12.30
2021,04,26,10,37,12.30
2021,04,26,10,38,12.40
2021,04,26,10,39,12.50
2021,04,26,10,40,12.60
2021,04,26,10,41,12.70
2021,04,26,10,42,12.80
2021,04,26,10,43,12.70
2021,04,26,10,44,12.60
2021,04,26,10,45,12.60
2021,04,26,10,46,12.60
2021,04,26,10,47,12.60
2021,04,26,10,48,12.60
2021,04,26,10,49,12.60
2021,04,26,10,50,12.60
2021,04,26,10,51,12.60
2021,04,26,10,52,12.70
2021,04,26,10,53,12.70
2021,04,26,10,54,12.80
2021,04,26,10,55,12.80
2021,04,26,10,56,12.90
2021,04,26,10,57,12.90
2021,04,26,10,58,12.90
2021,04,26,10,59,12.80
2021,04,26,11,00,12.80
2021,04,26,11,01,12.80
2021,04,26,11,02,12.80
2021,04,26,11,03,12.90
2021,04,26,11,04,13.00
2021,04,26,11,05,13.00
2021,04,26,11,06,12.90
2021,04,26,11,07,13.00
2021,04,26,11,08,13.00
2021,04,26,11,09,13.00
2021,04,26,11,10,13.00
2021,04,26,11,11,13.10
2021,04,26,11,12,13.10
2021,04,26,11,13,13.10
2021,04,26,11,14,13.00
2021,04,26,11,15,12.90
2021,04,26,11,16,12.90
2021,04,26,11,17,12.80
2021,04,26,11,18,12.80
2021,04,26,11,19,12.90
2021,04,26,11,20,13.00
2021,04,26,11,21,13.10
2021,04,26,11,22,13.20
2021,04,26,11,23,13.20
2021,04,26,11,24,13.20
2021,04,26,11,25,13.30
2021,04,26,11,26,13.40
2021,04,26,11,27,13.50
2021,04,26,11,28,13.60
2021,04,26,11,29,13.70
2021,04,26,11,30,13.80
2021,04,26,11,31,13.90
2021,04,26,11,32,13.90
2021,04,26,11,33,13.90
2021,04,26,11,34,13.90
2021,04,26,11,35,13.80
2021,04,26,11,36,13.80
2021,04,26,11,37,13.70
2021,04,26,11,38,13.70
2021,04,26,11,39,13.60
2021,04,26,11,40,13.60
2021,04,26,11,41,13.60
2021,04,26,11,42,13.70
2021,04,26,11,43,13.70
2021,04,26,11,44,13.70
2021,04,26,11,45,13.70
2021,04,26,11,46,13.70
2021,04,26,11,47,13.60
2021,04,26,11,48,13.50
2021,04,26,11,49,13.40
2021,04,26,11,50,13.20
2021,04,26,11,51,13.10
2021,04,26,11,52,12.90
2021,04,26,11,53,12.80
2021,04,26,11,54,12.70
2021,04,26,11,55,12.50
2021,04,26,11,56,12.40
2021,04,26,11,57,12.40
2021,04,26,11,58,12.30
2021,04,26,11,59,12.30
2021,04,26,12,00,12.20
2021,04,26,12,01,12.20
2021,04,26,12,02,12.10
2021,04,26,12,03,12.00
2021,04,26,12,04,12.00
2021,04,26,12,05,12.00
2021,04,26,12,06,11.90
2021,04,26,12,07,11.90
2021,04,26,12,08,11.90
2021,04,26,12,09,11.80
2021,04,26,12,10,11.80
2021,04,26,12,11,11.80
2021,04,26,12,12,11.80
2021,04,26,12,13,11.80
2021,04,26,12,14,11.80
2021,04,26,12,15,11.70
2021,04,26,12,16,11.70
2021,04,26,12,17,11.70
2021,04,26,12,18,11.70
2021,04,26,12,19,11.70
2021,04,26,12,20,11.70
2021,04,26,12,21,11.70
2021,04,26,12,22,11.70
2021,04,26,12,23,11.70
2021,04,26,12,24,11.70
2021,04,26,12,25,11.70
2021,04,26,12,26,11.70
2021,04,26,12,27,11.70
2021,04,26,12,28,11.70
2021,04,26,12,29,11.70
2021,04,26,12,30,11.80
2021,04,26,12,31,11.80
2021,04,26,12,32,11.90
2021,04,26,12,33,11.90
2021,04,26,12,34,11.90
2021,04,26,12,35,12.00
2021,04,26,12,36,12.00
2021,04,26,12,37,12.00
2021,04,26,12,38,12.00
2021,04,26,12,39,12.10
2021,04,26,12,40,12.20
2021,04,26,12,41,12.30
2021,04,26,12,42,12.30
2021,04,26,12,43,12.40
2021,04,26,12,44,12.40
2021,04,26,12,45,12.40
2021,04,26,12,46,12.50
2021,04,26,12,47,12.50
2021,04,26,12,48,12.60
2021,04,26,12,49,12.70
2021,04,26,12,50,12.70
2021,04,26,12,51,12.70
2021,04,26,12,52,12.70
2021,04,26,12,53,12.70
2021,04,26,12,54,12.80
2021,04,26,12,55,12.80
2021,04,26,12,56,12.80
2021,04,26,12,57,12.80
2021,04,26,12,58,12.90
2021,04,26,12,59,12.90
2021,04,26,13,00,13.10
2021,04,26,13,01,13.20
2021,04,26,13,02,13.20
2021,04,26,13,03,13.30
2021,04,26,13,04,13.40
2021,04,26,13,05,13.50
2021,04,26,13,06,13.60
2021,04,26,13,07,13.60
2021,04,26,13,08,13.70
2021,04,26,13,09,13.80
2021,04,26,13,10,13.80
2021,04,26,13,11,13.90
2021,04,26,13,12,13.90
2021,04,26,13,13,14.00
2021,04,26,13,14,14.10
2021,04,26,13,15,14.20
2021,04,26,13,16,14.20
2021,04,26,13,17,14.20
2021,04,26,13,18,14.20
2021,04,26,13,19,14.30
2021,04,26,13,20,14.30
2021,04,26,13,21,14.30
2021,04,26,13,22,14.40
2021,04,26,13,23,14.50
2021,04,26,13,24,14.60
2021,04,26,13,25,14.60
2021,04,26,13,26,14.60
2021,04,26,13,27,14.70
2021,04,26,13,28,14.80
2021,04,26,13,29,14.80
2021,04,26,13,30,14.80
2021,04,26,13,31,14.80
2021,04,26,13,32,14.80
2021,04,26,13,33,14.70
2021,04,26,13,34,14.70
2021,04,26,13,35,14.70
2021,04,26,13,36,14.80
2021,04,26,13,37,14.70
2021,04,26,13,38,14.70
2021,04,26,13,39,14.70
2021,04,26,13,40,14.70
2021,04,26,13,41,14.70
2021,04,26,13,42,14.60
2021,04,26,13,43,14.60
2021,04,26,13,44,14.50
2021,04,26,13,45,14.40
2021,04,26,13,46,14.30
2021,04,26,13,47,14.30
2021,04,26,13,48,14.30
2021,04,26,13,49,14.40
2021,04,26,13,50,14.40
2021,04,26,13,51,14.40
2021,04,26,13,52,14.40
2021,04,26,13,53,14.30
2021,04,26,13,54,14.30
2021,04,26,13,55,14.30
2021,04,26,13,56,14.20
2021,04,26,13,57,14.20
2021,04,26,13,58,14.10
2021,04,26,13,59,14.10
2021,04,26,14,00,14.20
2021,04,26,14,01,14.20
2021,04,26,14,02,14.20
2021,04,26,14,03,14.20
2021,04,26,14,04,14.20
2021,04,26,14,05,14.20
2021,04,26,14,06,14.20
2021,04,26,14,07,14.30
2021,04,26,14,08,14.30
2021,04,26,14,09,14.30
2021,04,26,14,10,14.30
2021,04,26,14,11,14.30
2021,04,26,14,12,14.20
2021,04,26,14,13,14.20
2021,04,26,14,14,14.20
2021,04,26,14,15,14.20
2021,04,26,14,16,14.20
2021,04,26,14,17,14.20
2021,04,26,14,18,14.20
2021,04,26,14,19,14.10
2021,04,26,14,20,14.10
2021,04,26,14,21,14.10
2021,04,26,14,22,14.10
2021,04,26,14,23,14.10
2021,04,26,14,24,14.10
2021,04,26,14,25,14.10
2021,04,26,14,26,14.20
2021,04,26,14,27,14.20
2021,04,26,14,28,14.20
2021,04,26,14,29,14.20
2021,04,26,14,30,14.20
2021,04,26,14,31,14.20
2021,04,26,14,32,14.30
2021,04,26,14,33,14.30
2021,04,26,14,34,14.40
2021,04,26,14,35,14.50
2021,04,26,14,36,14.60
2021,04,26,14,37,14.70
2021,04,26,14,38,14.80
2021,04,26,14,39,14.90
2021,04,26,14,40,14.90
2021,04,26,14,41,15.00
2021,04,26,14,42,15.00
2021,04,26,14,43,15.00
2021,04,26,14,44,14.90
2021,04,26,14,45,14.90
2021,04,26,14,46,14.90
2021,04,26,14,47,14.90
2021,04,26,14,48,14.80
2021,04,26,14,49,14.80
2021,04,26,14,50,14.80
2021,04,26,14,51,14.70
2021,04,26,14,52,14.60
2021,04,26,14,53,14.50
2021,04,26,14,54,14.40
2021,04,26,14,55,14.30
2021,04,26,14,56,14.30
2021,04,26,14,57,14.30
2021,04,26,14,58,14.20
2021,04,26,14,59,14.20
2021,04,26,15,00,14.20
2021,04,26,15,01,14.20
2021,04,26,15,02,14.20
2021,04,26,15,03,14.30
2021,04,26,15,04,14.30
2021,04,26,15,05,14.30
2021,04,26,15,06,14.30
2021,04,26,15,07,14.30
2021,04,26,15,08,14.30
2021,04,26,15,09,14.30
2021,04,26,15,10,14.30
2021,04,26,15,11,14.30
2021,04,26,15,12,14.30
2021,04,26,15,13,14.30
2021,04,26,15,14,14.20
2021,04,26,15,15,14.20
2021,04,26,15,16,14.20
2021,04,26,15,17,14.20
2021,04,26,15,18,14.20
2021,04,26,15,19,14.20
2021,04,26,15,20,14.20
2021,04,26,15,21,14.20
2021,04,26,15,22,14.20
2021,04,26,15,23,14.20
2021,04,26,15,24,14.30
2021,04,26,15,25,14.30
2021,04,26,15,26,14.40
2021,04,26,15,27,14.40
2021,04,26,15,28,14.40
2021,04,26,15,29,14.40
2021,04,26,15,30,14.40
2021,04,26,15,31,14.40
2021,04,26,15,32,14.50
2021,04,26,15,33,14.50
2021,04,26,15,34,14.50
2021,04,26,15,35,14.60
2021,04,26,15,36,14.60
2021,04,26,15,37,14.60
2021,04,26,15,38,14.60
2021,04,26,15,39,14.60
2021,04,26,15,40,14.50
2021,04,26,15,41,14.50
2021,04,26,15,42,14.40
2021,04,26,15,43,14.40
2021,04,26,15,44,14.40
2021,04,26,15,45,14.50
2021,04,26,15,46,14.60
2021,04,26,15,47,14.70
2021,04,26,15,48,14.70
2021,04,26,15,49,14.80
2021,04,26,15,50,14.80
2021,04,26,15,51,14.90
2021,04,26,15,52,15.00
2021,04,26,15,53,15.10
2021,04,26,15,54,15.10
2021,04,26,15,55,15.10
2021,04,26,15,56,15.10
2021,04,26,15,57,15.10
2021,04,26,15,58,15.10
2021,04,26,15,59,15.10
2021,04,26,16,00,15.20
2021,04,26,16,01,15.30
2021,04,26,16,02,15.40
2021,04,26,16,03,15.40
2021,04,26,16,04,15.40
2021,04,26,16,05,15.30
2021,04,26,16,06,15.30
2021,04,26,16,07,15.20
2021,04,26,16,08,15.20
2021,04,26,16,09,15.20
2021,04,26,16,10,15.10
2021,04,26,16,11,15.00
2021,04,26,16,12,15.00
2021,04,26,16,13,15.10
2021,04,26,16,14,15.10
2021,04,26,16,15,15.10
2021,04,26,16,16,15.10
2021,04,26,16,17,15.10
2021,04,26,16,18,15.10
2021,04,26,16,19,15.10
2021,04,26,16,20,15.10
2021,04,26,16,21,15.10
2021,04,26,16,22,15.10
2021,04,26,16,23,15.00
2021,04,26,16,24,15.00
2021,04,26,16,25,14.90
2021,04,26,16,26,14.90
2021,04,26,16,27,15.00
2021,04,26,16,28,15.00
2021,04,26,16,29,15.10
2021,04,26,16,30,15.10
2021,04,26,16,31,15.10
2021,04,26,16,32,15.10
2021,04,26,16,33,15.10
2021,04,26,16,34,15.10
2021,04,26,16,35,15.20
2021,04,26,16,36,15.20
2021,04,26,16,37,15.10
2021,04,26,16,38,15.10
2021,04,26,16,39,15.10
2021,04,26,16,40,15.00
2021,04,26,16,41,15.00
2021,04,26,16,42,14.90
2021,04,26,16,43,14.90
2021,04,26,16,44,14.90
2021,04,26,16,45,15.00
2021,04,26,16,46,15.00
2021,04,26,16,47,15.00
2021,04,26,16,48,15.00
2021,04,26,16,49,15.10
2021,04,26,16,50,15.10
2021,04,26,16,51,15.10
2021,04,26,16,52,15.10
2021,04,26,16,53,15.10
2021,04,26,16,54,15.20
2021,04,26,16,55,15.30
2021,04,26,16,56,15.40
2021,04,26,16,57,15.40
2021,04,26,16,58,15.40
2021,04,26,16,59,15.40
2021,04,26,17,00,15.40
2021,04,26,17,01,15.40
2021,04,26,17,02,15.50
2021,04,26,17,03,15.50
2021,04,26,17,04,15.60
2021,04,26,17,05,15.60
2021,04,26,17,06,15.60
2021,04,26,17,07,15.60
2021,04,26,17,08,15.60
2021,04,26,17,09,15.60
2021,04,26,17,10,15.60
2021,04,26,17,11,15.70
2021,04,26,17,12,15.70
2021,04,26,17,13,15.70
2021,04,26,17,14,15.70
2021,04,26,17,15,15.70
2021,04,26,17,16,15.70
2021,04,26,17,17,15.70
2021,04,26,17,18,15.70
2021,04,26,17,19,15.70
2021,04,26,17,20,15.60
2021,04,26,17,21,15.50
2021,04,26,17,22,15.40
2021,04,26,17,23,15.30
2021,04,26,17,24,15.30
2021,04,26,17,25,15.20
2021,04,26,17,26,15.20
2021,04,26,17,27,15.10
2021,04,26,17,28,15.00
2021,04,26,17,29,15.00
2021,04,26,17,30,14.90
2021,04,26,17,31,14.80
2021,04,26,17,32,14.80
2021,04,26,17,33,14.70
2021,04,26,17,34,14.70
2021,04,26,17,35,14.70
2021,04,26,17,36,14.70
2021,04,26,17,37,14.60
2021,04,26,17,38,14.60
2021,04,26,17,39,14.60
2021,04,26,17,40,14.50
2021,04,26,17,41,14.50
2021,04,26,17,42,14.50